Regional Weather Roundup
Issued by NWS

Home | Current Version | Previous Version | Text Only | Print | Product List | Glossary On
Versions: 1 2 3 4 5 6 7 8 9 10 11 12 13 14 15 16 17 18 19 20 21 22 23 24 25 26 27 28 29 30 31 32 33 34 35 36 37 38 39 40 41 42 43 44 45 46 47 48 49 50
000
ASCA44 KEWX 271220
RWRMX

LATIN AMERICA AND CARIBBEAN REGIONAL WEATHER ROUNDUP
NATIONAL WEATHER SERVICE AUSTIN/SAN ANTONIO TX
700 AM CDT TUE JUN 27 2017

NOTE: "FAIR" INDICATED FEW OR NO CLOUDS BELOW 12,000 FEET WITH NO
SIGNIFICANT WEATHER AND/OR OBSTRUCTIONS TO VISIBILITY.

BAJA CALIFORNIA

CITY           SKY/WX    TMP DP  RH WIND       PRES   REMARKS
S.J. DEL CABO  CLOUDY    79  61  53 SE6       29.88
TIJUANA        CLEAR     66  57  72 CALM      29.89S

NORTHWESTERN MEXICO

CITY           SKY/WX    TMP DP  RH WIND       PRES   REMARKS
CULIACAN       MOCLDY    81  73  78 SE5       29.88
HERMOSILLO     PTCLDY    84  73  70 N6        29.89R HX  91
CD. JUAREZ     PTCLDY    68  61  77 E7        30.16

NORTHEASTERN MEXICO

CITY           SKY/WX    TMP DP  RH WIND       PRES   REMARKS
CHIHUAHUA      MOCLDY    64  45  48 NE6       30.19R
MATAMOROS      LGT RAIN  77  75  94 SE5       29.91R
MONCLOVA       PTCLDY    75  57  53 E6        30.02
MONTERREY      CLEAR     72  68  88 NW6       29.96R
NUEVO LAREDO   PTCLDY    77  73  88 E7        29.95
REYNOSA        PTCLDY    75  70  83 NE3       29.92S
SALTILLO       CLEAR     64  50  59 CALM      30.22R
TORREON        PTCLDY    75  61  60 CALM      30.07
CD. VICTORIA   MOCLDY    72  72 100 SW3       29.95

WESTERN MEXICO

CITY           SKY/WX    TMP DP  RH WIND       PRES   REMARKS
AGUASCALIENTES CLOUDY    61  59  94 E5        30.29S
COLIMA         PTCLDY    72  70  94 CALM      30.06
DEL BAJIO      DRIZZLE   61  61 100 CALM      30.31S
GUADALAJARA    PTCLDY    64  57  77 NE5       30.19S
MAZATLAN       CLOUDY    79  73  83 NE3       29.88F
P. VALLARTA    CLOUDY    77  77 100 NE2       29.89R
URUAPAN        MOCLDY    59  57  94 CALM      30.19
ZACATECAS      CLOUDY    57  54  88 CALM      30.32R

CENTRAL MEXICO

CITY           SKY/WX    TMP DP  RH WIND       PRES   REMARKS
CUERNAVACA       N/A    N/A N/A N/A MISG        N/A
MEXICO CITY    CLOUDY    59  54  82 E6        30.34S
MORELIA        CLOUDY    59  59 100 CALM      30.26S
POZA RICA      CLOUDY    73  73 100 SW5       29.96
QUERETARO      CLOUDY    59  59 100 W3        30.32
S. LUIS POTOSI LGT RAIN  59  57  94 NW8       30.27R
TAMPICO        MOCLDY    75  73  94 CALM      29.91S
TOLUCA         CLOUDY    54  52  94 N3        30.40R FOG

SOUTHERN MEXICO

CITY           SKY/WX    TMP DP  RH WIND       PRES   REMARKS
ACAPULCO       CLOUDY    81  77  89 NW5       29.85S
B. DE HUATULCO CLOUDY   N/A N/A N/A CALM      29.94
OAXACA         MOCLDY    63  59  88 NW6       30.22
P. ESCONDIDO   PTCLDY    75  72  88 E8        29.95S
VERACRUZ       CLOUDY    75  75 100 CALM      29.92R
ZIHUATANEJO    MOCLDY    79  73  83 CALM      29.89

YUCATAN PENINSULA

CITY           SKY/WX    TMP DP  RH WIND       PRES   REMARKS
CAMPECHE       PTCLDY    77  75  94 E6        29.90S
CANCUN         MOSUNNY   81  79  94 E2        29.96S
CHETUMAL       MOCLDY    81  77  89 E6        29.93R
CD. DEL CARMEN MOCLDY   N/A N/A N/A E8        29.90R
COZUMEL        PTCLDY    77  75  94 SE3       29.94R
MERIDA         PTCLDY    75  73  94 E6        29.95S
MINATITLAN     CLOUDY    75  73  94 CALM      29.89R
TAPACHULA      MOCLDY    73  72  94 W7        29.87R
TUX. GUTIERREZ PTCLDY    70  70 100 S2        29.96R
VILLAHERMOSA   MOCLDY    75  73  94 CALM      29.90F

CENTRAL AMERICA

CITY           SKY/WX    TMP DP  RH WIND       PRES   REMARKS
BELIZE CITY    PTCLDY    81  79  94 E5        29.92R
MANAGUA        MOSUNNY   73  70  88 S7        29.86S

CARIBBEAN

CITY           SKY/WX    TMP DP  RH WIND       PRES   REMARKS
ARUBA          MOSUNNY   84  77  79 E16       29.92S HX  94
CURACAO        MOSUNNY   84  73  70 E10       29.97R HX  91
KINGSTON       PTSUNNY   84  75  74 SE14      29.97R HX  92
NASSAU         MOSUNNY   81  77  89 E3        30.00F
SAN JUAN       MOSUNNY   82  75  78 E10       30.05S
SANTO DOMINGO  MOSUNNY   79  75  89 NE7       30.03R
ST. CROIX      SUNNY     84  75  74 E9        30.04  HX  92
ST. KITTS      PTSUNNY   82  75  78 NE15      30.00S
ST. MAARTEN    MOSUNNY   84  77  79 E8        30.03S HX  94
ST. THOMAS     MOSUNNY   86  75  70 E8        30.03  HX  95

$$




USA.gov is the U.S. government's official web portal to all federal, state and local government web resources and services.